Tracking 21094 objects as of 11-Aug-2020
HD Live streaming from Space Station
objects crossing your sky now
Track the most recent launched group of Starlink satellites

STTW-3

Track STTW-3 now!
STTW-3 is classified as:


NORAD ID: 19710
Int'l Code: 1988-111A
Perigee: 35,753.9 km
Apogee: 35,811.2 km
Inclination: 15.1 °
Period: 1,435.5 minutes
Semi major axis: 42153 km
RCS: 6.3096 m2 (large)
Launch date: December 22, 1988
Source: People's Republic of China (PRC)
Launch site: Xichang Space Center, China (XSC)
aabbcc
Your satellite tracking list
Your tracking list is empty




NASA's NSSDC Master Catalog

Two Line Element Set (TLE):
1 19710U 88111A   20224.34677698 -.00000355  00000-0  00000+0 0  9990
2 19710  15.0518   2.7950 0006804  83.1752 105.6881  1.00311768109430
Source of the keplerian elements: AFSPC